Terminal Aerodrome Forecast
Issued by NWS Twin Cities, MN

Home | Current Version | Previous Version | Graphics & Text | Print | Product List | Glossary On
Versions: 1 2 3 4 5 6 7 8 9 10 11 12 13 14 15 16 17 18 19 20 21 22 23 24
009
FTUS43 KMPX 192045 AAA
TAFMSP
TAF AMD
KMSP 192045Z 1921/2024 31012G20KT P6SM FEW050 BKN090
     FM200200 29007KT P6SM FEW120
     FM200600 27005KT P6SM VCSH SCT050 BKN090
     FM201200 30008KT P6SM FEW050=

USA.gov is the U.S. government's official web portal to all federal, state and local government web resources and services.